Torna al catalogo

STARLINK-32029

AttivoComunicazioniVLEO
NORAD 60145·PAYLOAD·🇺🇸 United States

Lanciato Jun 27, 2024 da Cape Canaveral Space Force Station

Loading…

Prossimi Passaggi (prossime 24 ore)

TLE

AggiornatoSource: CelesTrak SupGP

Epoca: Sep 14, 2026, 21:45 UTC

1 60145C 24120L   26257.90673611 -.00029605  00000+0 -87424-3 0  2578
2 60145  53.1579 157.6801 0001108  88.5093 264.3665 15.34421497    12

Traccia STARLINK-32029 in tempo reale con AllMySat

Download on the App Store